Location: Bois de la Silve
(44.4667°N, 6.7833°E)
Time: 20:26:17
(UTC+00:00)

Cosmos 1242 Rocket - Pass Details

Date: 14 July 2020
Orbit: 448 x 487 km, 81.2° (Epoch: 14 August)

Event Time Altitude Azimuth Distance (km) Brightness Sun altitude
Rises 03:17:21 0° 337° (NNW) 2,464 6.4 -7.2°
Reaches altitude 10° 03:19:39 10° 323° (NW) 1,589 5.2 -6.9°
Maximum altitude 03:22:31 24° 268° (W) 973 3.7 -6.5°
Drops below altitude 10° 03:25:22 10° 212° (SSW) 1,587 4.6 -6.1°
Enters shadow 03:26:31 - 204° (SSW) 2,008 5.1 -6.0°
